DAL1715 KLAX-KSFO

Flight info

Callsign DAL1715
Flight time 1h 1m
Altitude 36000
Route SUMMR2 STOKD SERFR SERFR4
Aircraft A321/M-SDE3FGHIRWY/LB1

Departure

Time 2026-04-20 21:07
Airport Los Angeles International Airport (KLAX)

Arrival

Time 2026-04-20 22:08
Airport San Francisco International Airport (KSFO)
Time Latitude Longitude Altitude Speed Heading
2026-04-20 20:35 33.94045 -118.39906 95 ft 0 kts 353°
2026-04-20 20:52 33.94039 -118.39905 95 ft 4 kts 353°
2026-04-20 20:52 33.94012 -118.39902 94 ft 4 kts 353°
2026-04-20 20:52 33.93991 -118.39898 93 ft 4 kts
2026-04-20 20:52 33.93973 -118.39907 93 ft 4 kts 69°
2026-04-20 20:53 33.93968 -118.39936 94 ft 4 kts 83°
2026-04-20 20:53 33.93967 -118.39948 95 ft 0 kts 83°
2026-04-20 20:56 33.93967 -118.39946 95 ft 2 kts 83°
2026-04-20 20:57 33.93975 -118.39860 94 ft 4 kts 84°
2026-04-20 20:57 33.93965 -118.39822 96 ft 12 kts 135°
2026-04-20 20:57 33.93908 -118.39746 96 ft 12 kts 101°
2026-04-20 20:57 33.93915 -118.39648 96 ft 12 kts 82°
2026-04-20 20:58 33.93926 -118.39542 98 ft 13 kts 83°
2026-04-20 20:58 33.93937 -118.39425 96 ft 15 kts 84°
2026-04-20 20:58 33.93949 -118.39294 93 ft 16 kts 82°
2026-04-20 20:58 33.93964 -118.39155 96 ft 17 kts 83°
2026-04-20 20:59 33.93980 -118.39012 94 ft 18 kts 83°
2026-04-20 20:59 33.93994 -118.38862 94 ft 17 kts 83°
2026-04-20 20:59 33.94006 -118.38736 94 ft 15 kts 83°
2026-04-20 20:59 33.94019 -118.38613 96 ft 15 kts 83°
2026-04-20 21:00 33.94033 -118.38487 96 ft 15 kts 82°
2026-04-20 21:00 33.94041 -118.38405 97 ft 7 kts 83°
2026-04-20 21:00 33.94048 -118.38341 96 ft 9 kts 83°
2026-04-20 21:00 33.94056 -118.38259 97 ft 11 kts 83°
2026-04-20 21:01 33.94066 -118.38166 94 ft 9 kts 82°
2026-04-20 21:01 33.94074 -118.38091 93 ft 0 kts 83°
2026-04-20 21:01 33.94075 -118.38077 93 ft 4 kts 83°
2026-04-20 21:01 33.94075 -118.38033 93 ft 7 kts 103°
2026-04-20 21:02 33.94070 -118.38021 93 ft 0 kts 121°
2026-04-20 21:02 33.94067 -118.38015 94 ft 5 kts 122°
2026-04-20 21:03 33.93992 -118.38014 93 ft 14 kts 223°
2026-04-20 21:03 33.93976 -118.38086 94 ft 0 kts 265°
2026-04-20 21:06 33.93963 -118.38237 98 ft 51 kts 264°
2026-04-20 21:07 33.93889 -118.38912 95 ft 111 kts 263°
2026-04-20 21:07 33.93773 -118.40035 114 ft 155 kts 262°
2026-04-20 21:07 33.93637 -118.41303 761 ft 147 kts 263°
2026-04-20 21:07 33.93514 -118.42538 1433 ft 149 kts 259°
2026-04-20 21:08 33.93386 -118.43799 2087 ft 159 kts 262°
2026-04-20 21:08 33.93245 -118.45202 2449 ft 179 kts 261°
2026-04-20 21:08 33.93098 -118.46725 2712 ft 200 kts 263°
2026-04-20 21:08 33.92944 -118.48498 2960 ft 224 kts 263°
2026-04-20 21:09 33.92778 -118.50474 3353 ft 249 kts 263°
2026-04-20 21:09 33.92597 -118.52636 3929 ft 265 kts 263°
2026-04-20 21:09 33.92414 -118.54869 4750 ft 271 kts 262°
2026-04-20 21:09 33.92232 -118.57137 5593 ft 274 kts 262°
2026-04-20 21:10 33.92047 -118.59434 6464 ft 276 kts 261°
2026-04-20 21:10 33.91923 -118.60964 6999 ft 278 kts 262°
2026-04-20 21:10 33.91767 -118.63297 7783 ft 282 kts 267°
2026-04-20 21:10 33.91771 -118.65668 8592 ft 284 kts 266°
2026-04-20 21:11 33.91768 -118.67991 9401 ft 286 kts 266°
2026-04-20 21:11 33.91755 -118.71157 10307 ft 296 kts 266°
2026-04-20 21:11 33.91743 -118.72879 10449 ft 311 kts 266°
2026-04-20 21:11 33.91716 -118.76503 10701 ft 340 kts 266°
2026-04-20 21:12 33.91703 -118.78453 11032 ft 347 kts 266°
2026-04-20 21:12 33.91689 -118.81346 11668 ft 351 kts 266°
2026-04-20 21:12 33.91686 -118.84302 12026 ft 356 kts 267°
2026-04-20 21:12 33.91743 -118.87281 12795 ft 357 kts 268°
2026-04-20 21:13 33.91837 -118.90281 13558 ft 359 kts 269°
2026-04-20 21:13 33.91949 -118.93302 14244 ft 362 kts 269°
2026-04-20 21:13 33.92063 -118.96339 14905 ft 364 kts 268°
2026-04-20 21:13 33.92262 -118.99394 15557 ft 369 kts 275°
2026-04-20 21:14 33.92666 -119.01500 15988 ft 375 kts 282°
2026-04-20 21:14 33.93070 -119.02851 16259 ft 379 kts 288°
2026-04-20 21:14 33.94320 -119.05682 16870 ft 387 kts 297°
2026-04-20 21:14 33.95752 -119.08444 17494 ft 390 kts 297°
2026-04-20 21:15 33.97191 -119.11231 18093 ft 393 kts 296°
2026-04-20 21:15 33.98623 -119.14009 18620 ft 396 kts 296°
2026-04-20 21:15 34.00143 -119.16810 19107 ft 403 kts 302°
2026-04-20 21:15 34.02037 -119.19345 19583 ft 412 kts 312°
2026-04-20 21:16 34.04311 -119.21501 20067 ft 419 kts 320°
2026-04-20 21:16 34.06702 -119.23545 20538 ft 422 kts 320°
2026-04-20 21:16 34.09106 -119.25604 21038 ft 425 kts 320°
2026-04-20 21:16 34.11526 -119.27680 21476 ft 429 kts 320°
2026-04-20 21:17 34.13966 -119.29774 21949 ft 432 kts 320°
2026-04-20 21:17 34.16419 -119.31884 22434 ft 434 kts 320°
2026-04-20 21:17 34.18893 -119.34015 22875 ft 437 kts 320°
2026-04-20 21:17 34.21382 -119.36165 23332 ft 440 kts 320°
2026-04-20 21:18 34.23872 -119.38321 23790 ft 442 kts 320°
2026-04-20 21:18 34.26381 -119.40498 24179 ft 444 kts 320°
2026-04-20 21:18 34.28869 -119.42656 24563 ft 447 kts 320°
2026-04-20 21:18 34.31407 -119.44850 24946 ft 449 kts 320°
2026-04-20 21:19 34.33953 -119.47047 25323 ft 451 kts 320°
2026-04-20 21:19 34.36514 -119.49262 25695 ft 453 kts 320°
2026-04-20 21:19 34.39083 -119.51486 26065 ft 455 kts 320°
2026-04-20 21:20 34.43804 -119.56552 26806 ft 454 kts 310°
2026-04-20 21:20 34.46020 -119.59289 27173 ft 456 kts 310°
2026-04-20 21:20 34.48254 -119.62041 27536 ft 458 kts 310°
2026-04-20 21:20 34.50502 -119.64804 27829 ft 461 kts 310°
2026-04-20 21:21 34.52759 -119.67575 28198 ft 463 kts 310°
2026-04-20 21:21 34.55029 -119.70366 28535 ft 465 kts 310°
2026-04-20 21:21 34.57302 -119.73163 28878 ft 467 kts 310°
2026-04-20 21:21 34.59589 -119.75983 29216 ft 469 kts 310°
2026-04-20 21:22 34.61855 -119.78780 29522 ft 471 kts 310°
2026-04-20 21:22 34.64158 -119.81626 29845 ft 473 kts 310°
2026-04-20 21:22 34.66467 -119.84485 30229 ft 473 kts 310°
2026-04-20 21:22 34.68763 -119.87336 30623 ft 471 kts 310°
2026-04-20 21:23 34.71050 -119.90180 31029 ft 470 kts 310°
2026-04-20 21:23 34.73338 -119.93021 31425 ft 469 kts 310°
2026-04-20 21:23 34.75619 -119.95850 31804 ft 469 kts 310°
2026-04-20 21:23 34.77900 -119.98683 32181 ft 468 kts 310°
2026-04-20 21:24 34.80180 -120.01517 32540 ft 467 kts 310°
2026-04-20 21:24 34.82455 -120.04347 32921 ft 467 kts 310°
2026-04-20 21:24 34.84725 -120.07172 33308 ft 466 kts 310°
2026-04-20 21:24 34.86988 -120.09994 33694 ft 465 kts 310°
2026-04-20 21:25 34.89245 -120.12810 34103 ft 463 kts 309°
2026-04-20 21:25 34.91491 -120.15614 34453 ft 463 kts 309°
2026-04-20 21:25 34.93705 -120.18383 34731 ft 463 kts 309°
2026-04-20 21:25 34.95949 -120.21196 35045 ft 462 kts 309°
2026-04-20 21:26 34.98183 -120.24000 35368 ft 461 kts 309°
2026-04-20 21:26 35.00423 -120.26813 35698 ft 460 kts 309°
2026-04-20 21:26 35.02657 -120.29617 35971 ft 460 kts 309°
2026-04-20 21:27 35.07105 -120.35203 36056 ft 456 kts 309°
2026-04-20 21:27 35.11616 -120.40676 36070 ft 458 kts 312°
2026-04-20 21:28 35.16311 -120.45871 36068 ft 458 kts 313°
2026-04-20 21:28 35.21076 -120.51061 36072 ft 458 kts 313°
2026-04-20 21:29 35.25782 -120.56298 36073 ft 457 kts 312°
2026-04-20 21:29 35.30457 -120.61589 36066 ft 458 kts 312°
2026-04-20 21:30 35.35145 -120.66895 36064 ft 458 kts 312°
2026-04-20 21:30 35.39839 -120.72184 36066 ft 459 kts 312°
2026-04-20 21:31 35.44533 -120.77491 36064 ft 459 kts 312°
2026-04-20 21:31 35.49309 -120.82716 36060 ft 463 kts 318°
2026-04-20 21:32 35.54455 -120.87481 36057 ft 464 kts 318°
2026-04-20 21:32 35.59610 -120.92262 36061 ft 464 kts 318°
2026-04-20 21:33 35.64771 -120.97053 36069 ft 465 kts 318°
2026-04-20 21:33 35.69934 -121.01858 36066 ft 465 kts 318°
2026-04-20 21:34 35.75091 -121.06669 36062 ft 465 kts 318°
2026-04-20 21:34 35.80211 -121.11458 36054 ft 465 kts 318°
2026-04-20 21:35 35.85372 -121.16288 35875 ft 466 kts 318°
2026-04-20 21:35 35.87951 -121.18710 35617 ft 466 kts 318°
2026-04-20 21:35 35.90508 -121.21113 35369 ft 466 kts 318°
2026-04-20 21:35 35.93094 -121.23542 35150 ft 468 kts 318°
2026-04-20 21:36 35.95686 -121.25976 34910 ft 469 kts 318°
2026-04-20 21:36 35.98285 -121.28419 34670 ft 469 kts 318°
2026-04-20 21:36 36.00883 -121.30866 34440 ft 470 kts 318°
2026-04-20 21:36 36.03483 -121.33320 34192 ft 471 kts 318°
2026-04-20 21:37 36.06093 -121.35779 33945 ft 471 kts 319°
2026-04-20 21:37 36.08832 -121.38031 33675 ft 475 kts 323°
2026-04-20 21:37 36.11642 -121.40203 33356 ft 476 kts 323°
2026-04-20 21:37 36.14466 -121.42398 32393 ft 483 kts 323°
2026-04-20 21:38 36.17324 -121.44627 31450 ft 488 kts 323°
2026-04-20 21:38 36.20197 -121.46873 30571 ft 491 kts 323°
2026-04-20 21:38 36.23095 -121.49144 29590 ft 495 kts 322°
2026-04-20 21:38 36.25980 -121.51404 29093 ft 486 kts 322°
2026-04-20 21:39 36.28831 -121.53632 28436 ft 482 kts 322°
2026-04-20 21:39 36.31655 -121.55840 27818 ft 477 kts 322°
2026-04-20 21:39 36.34451 -121.58030 27194 ft 472 kts 322°
2026-04-20 21:39 36.37217 -121.60202 26605 ft 468 kts 321°
2026-04-20 21:40 36.39921 -121.62331 26013 ft 465 kts 321°
2026-04-20 21:40 36.42647 -121.64480 25429 ft 462 kts 321°
2026-04-20 21:40 36.45353 -121.66614 24836 ft 459 kts 321°
2026-04-20 21:40 36.48037 -121.68729 24370 ft 454 kts 321°
2026-04-20 21:41 36.50670 -121.70799 24201 ft 440 kts 321°
2026-04-20 21:41 36.53246 -121.72826 23672 ft 437 kts 320°
2026-04-20 21:41 36.55785 -121.74835 23202 ft 430 kts 320°
2026-04-20 21:41 36.58306 -121.76831 22587 ft 427 kts 320°
2026-04-20 21:42 36.60806 -121.78812 21915 ft 426 kts 320°
2026-04-20 21:42 36.63295 -121.80785 21491 ft 420 kts 320°
2026-04-20 21:42 36.65747 -121.82724 20973 ft 416 kts 320°
2026-04-20 21:42 36.68185 -121.84652 20431 ft 414 kts 320°
2026-04-20 21:43 36.70605 -121.86574 19912 ft 411 kts 320°
2026-04-20 21:43 36.73004 -121.88487 19469 ft 408 kts 320°
2026-04-20 21:43 36.75265 -121.90561 18966 ft 398 kts 312°
2026-04-20 21:43 36.77372 -121.92782 18489 ft 396 kts 312°
2026-04-20 21:44 36.79468 -121.94989 17973 ft 393 kts 312°
2026-04-20 21:44 36.81553 -121.97185 17464 ft 391 kts 312°
2026-04-20 21:44 36.83625 -121.99362 16937 ft 388 kts 313°
2026-04-20 21:44 36.85683 -122.01520 16439 ft 385 kts 313°
2026-04-20 21:45 36.87730 -122.03666 15956 ft 383 kts 314°
2026-04-20 21:45 36.89747 -122.05783 15315 ft 377 kts 314°
2026-04-20 21:45 36.91744 -122.07886 14869 ft 375 kts 314°
2026-04-20 21:45 36.93741 -122.09990 14373 ft 376 kts 315°
2026-04-20 21:46 36.95745 -122.12105 13899 ft 377 kts 315°
2026-04-20 21:46 36.97751 -122.14226 13483 ft 375 kts 315°
2026-04-20 21:46 36.99711 -122.16300 12996 ft 373 kts 315°
2026-04-20 21:46 37.01683 -122.18386 12517 ft 371 kts 315°
2026-04-20 21:47 37.03639 -122.20460 12136 ft 365 kts 315°
2026-04-20 21:47 37.05583 -122.22518 11672 ft 363 kts 316°
2026-04-20 21:47 37.07467 -122.24506 11460 ft 340 kts 315°
2026-04-20 21:47 37.09237 -122.26369 11133 ft 328 kts 315°
2026-04-20 21:48 37.10967 -122.28199 10917 ft 322 kts 315°
2026-04-20 21:48 37.12647 -122.29987 10970 ft 319 kts 314°
2026-04-20 21:48 37.14332 -122.31822 10675 ft 319 kts 314°
2026-04-20 21:48 37.15991 -122.33652 10447 ft 317 kts 314°
2026-04-20 21:49 37.17639 -122.35476 10226 ft 315 kts 314°
2026-04-20 21:49 37.19283 -122.37293 9982 ft 315 kts 313°
2026-04-20 21:49 37.20924 -122.39106 9744 ft 314 kts 313°
2026-04-20 21:49 37.22559 -122.40909 9515 ft 312 kts 313°
2026-04-20 21:50 37.24196 -122.42717 9287 ft 312 kts 313°
2026-04-20 21:50 37.25817 -122.44510 9062 ft 310 kts 313°
2026-04-20 21:50 37.27414 -122.46272 8856 ft 308 kts 313°
2026-04-20 21:50 37.29045 -122.48065 8624 ft 306 kts 313°
2026-04-20 21:51 37.30622 -122.49798 8420 ft 305 kts 313°
2026-04-20 21:51 37.32210 -122.51548 8178 ft 302 kts 313°
2026-04-20 21:51 37.33706 -122.53362 8005 ft 294 kts 300°
2026-04-20 21:51 37.34615 -122.55590 7996 ft 284 kts 284°
2026-04-20 21:52 37.35301 -122.57903 8002 ft 284 kts 283°
2026-04-20 21:52 37.35963 -122.60207 7998 ft 283 kts 283°
2026-04-20 21:52 37.36630 -122.62538 8017 ft 284 kts 282°
2026-04-20 21:52 37.37327 -122.64866 8003 ft 285 kts 283°
2026-04-20 21:53 37.38037 -122.67199 7999 ft 286 kts 283°
2026-04-20 21:53 37.38748 -122.69527 7995 ft 286 kts 283°
2026-04-20 21:53 37.39462 -122.71870 7989 ft 285 kts 283°
2026-04-20 21:53 37.40166 -122.74168 7987 ft 276 kts 283°
2026-04-20 21:54 37.40622 -122.75629 7997 ft 266 kts 283°
2026-04-20 21:54 37.41292 -122.77730 7984 ft 252 kts 283°
2026-04-20 21:54 37.41945 -122.79737 7993 ft 246 kts 283°
2026-04-20 21:54 37.42594 -122.81717 7987 ft 245 kts 283°
2026-04-20 21:55 37.43250 -122.83707 7988 ft 245 kts 283°
2026-04-20 21:55 37.44205 -122.85531 7916 ft 259 kts 310°
2026-04-20 21:55 37.45807 -122.86654 7650 ft 271 kts 342°
2026-04-20 21:55 37.47674 -122.87026 7371 ft 273 kts 351°
2026-04-20 21:56 37.49564 -122.87241 7112 ft 272 kts 353°
2026-04-20 21:56 37.51388 -122.87424 6872 ft 269 kts 353°
2026-04-20 21:56 37.53251 -122.87606 6596 ft 267 kts 353°
2026-04-20 21:56 37.55111 -122.87764 6196 ft 271 kts 358°
2026-04-20 21:57 37.56965 -122.87447 5979 ft 266 kts 11°
2026-04-20 21:57 37.58766 -122.86946 5980 ft 265 kts 12°
2026-04-20 21:57 37.60560 -122.86416 5981 ft 265 kts 12°
2026-04-20 21:57 37.62356 -122.85880 5982 ft 265 kts 13°
2026-04-20 21:58 37.64155 -122.85347 5986 ft 265 kts 12°
2026-04-20 21:58 37.65961 -122.84810 5982 ft 267 kts 12°
2026-04-20 21:58 37.67759 -122.84263 5928 ft 264 kts 13°
2026-04-20 21:58 37.69542 -122.83724 5660 ft 263 kts 12°
2026-04-20 21:59 37.71304 -122.83174 5437 ft 259 kts 12°
2026-04-20 21:59 37.73046 -122.82615 5179 ft 257 kts 13°
2026-04-20 21:59 37.74759 -122.82079 4932 ft 256 kts 13°
2026-04-20 21:59 37.76507 -122.81528 4522 ft 262 kts 13°
2026-04-20 22:00 37.78281 -122.80912 4104 ft 266 kts 22°
2026-04-20 22:00 37.79718 -122.79567 3969 ft 250 kts 57°
2026-04-20 22:00 37.80364 -122.77615 3983 ft 236 kts 91°
2026-04-20 22:00 37.80113 -122.75658 3986 ft 221 kts 123°
2026-04-20 22:01 37.79328 -122.74018 3981 ft 218 kts 131°
2026-04-20 22:01 37.78523 -122.72377 3978 ft 220 kts 130°
2026-04-20 22:01 37.77722 -122.70715 3990 ft 222 kts 130°
2026-04-20 22:01 37.76929 -122.69053 3986 ft 219 kts 128°
2026-04-20 22:02 37.76146 -122.67408 3986 ft 217 kts 128°
2026-04-20 22:02 37.75398 -122.65837 3993 ft 199 kts 130°
2026-04-20 22:02 37.74705 -122.64377 4032 ft 191 kts 130°
2026-04-20 22:02 37.74036 -122.62941 3846 ft 185 kts 128°
2026-04-20 22:03 37.73406 -122.61493 3844 ft 189 kts 129°
2026-04-20 22:03 37.72749 -122.60068 3699 ft 185 kts 131°
2026-04-20 22:03 37.72096 -122.58714 3459 ft 179 kts 133°
2026-04-20 22:03 37.71441 -122.57374 3221 ft 179 kts 133°
2026-04-20 22:04 37.70790 -122.56038 2980 ft 179 kts 132°
2026-04-20 22:04 37.70125 -122.54674 2741 ft 183 kts 133°
2026-04-20 22:04 37.69471 -122.53311 2504 ft 173 kts 132°
2026-04-20 22:04 37.68896 -122.52075 2273 ft 154 kts 132°
2026-04-20 22:05 37.68385 -122.50972 2093 ft 138 kts 134°
2026-04-20 22:05 37.67901 -122.49951 1916 ft 134 kts 134°
2026-04-20 22:05 37.67422 -122.48955 1757 ft 129 kts 135°
2026-04-20 22:05 37.66959 -122.47985 1558 ft 129 kts 134°
2026-04-20 22:06 37.66495 -122.47017 1409 ft 129 kts 133°
2026-04-20 22:06 37.66035 -122.46055 1221 ft 128 kts 131°
2026-04-20 22:06 37.65560 -122.45063 1061 ft 136 kts 133°
2026-04-20 22:06 37.65083 -122.44051 883 ft 132 kts 128°
2026-04-20 22:07 37.64609 -122.43059 690 ft 133 kts 127°
2026-04-20 22:07 37.64137 -122.42070 526 ft 131 kts 125°
2026-04-20 22:07 37.63648 -122.41050 336 ft 139 kts 128°
2026-04-20 22:07 37.63146 -122.39993 213 ft 140 kts 120°
2026-04-20 22:08 37.62695 -122.38900 50 ft 136 kts 122°
2026-04-20 22:08 37.62290 -122.37956 22 ft 99 kts 120°
2026-04-20 22:08 37.62112 -122.37528 24 ft 13 kts 117°
2026-04-20 22:08 37.62058 -122.37442 23 ft 11 kts 172°
2026-04-20 22:09 37.61983 -122.37490 22 ft 18 kts 209°
2026-04-20 22:09 37.61830 -122.37602 24 ft 29 kts 210°
2026-04-20 22:09 37.61782 -122.37704 25 ft 10 kts 287°
2026-04-20 22:09 37.61791 -122.37740 23 ft 0 kts 288°
2026-04-20 22:10 37.61792 -122.37744 23 ft 3 kts 288°
2026-04-20 22:10 37.61798 -122.37768 22 ft 0 kts 288°
2026-04-20 22:11 37.61807 -122.37803 22 ft 7 kts 288°
2026-04-20 22:11 37.61821 -122.37842 23 ft 3 kts 295°
2026-04-20 22:11 37.61847 -122.37888 22 ft 8 kts 328°
2026-04-20 22:12 37.61903 -122.37936 22 ft 10 kts 321°
2026-04-20 22:12 37.61942 -122.37986 22 ft 6 kts 312°
2026-04-20 22:12 37.61988 -122.38078 24 ft 26 kts 295°
2026-04-20 22:12 37.62074 -122.38290 22 ft 24 kts 297°
2026-04-20 22:13 37.62129 -122.38425 24 ft 15 kts 298°
2026-04-20 22:13 37.62173 -122.38526 22 ft 12 kts 298°
2026-04-20 22:13 37.62222 -122.38638 23 ft 17 kts 298°
2026-04-20 22:13 37.62271 -122.38757 22 ft 13 kts 297°
2026-04-20 22:14 37.62309 -122.38848 22 ft 10 kts 298°
2026-04-20 22:14 37.62337 -122.38914 23 ft 8 kts 292°
2026-04-20 22:14 37.62324 -122.39042 23 ft 23 kts 252°
2026-04-20 22:14 37.62259 -122.39191 23 ft 16 kts 212°
2026-04-20 22:15 37.62175 -122.39246 23 ft 10 kts 207°
2026-04-20 22:15 37.62125 -122.39278 22 ft 6 kts 207°
2026-04-20 22:15 37.62092 -122.39290 22 ft 5 kts 180°
2026-04-20 22:15 37.62052 -122.39245 22 ft 7 kts 123°
2026-04-20 22:16 37.62027 -122.39187 23 ft 11 kts 118°
2026-04-20 22:16 37.61987 -122.39086 22 ft 12 kts 116°
2026-04-20 22:16 37.61989 -122.39041 22 ft 3 kts 51°
2026-04-20 22:16 37.62016 -122.39018 22 ft 4 kts 30°
2026-04-20 22:17 37.62032 -122.39007 23 ft 2 kts 27°
2026-04-20 22:17 37.62045 -122.38999 22 ft 0 kts 27°